Torna al catalogo

USA 443

AttivoMilitareVLEO
NORAD 62342·PAYLOAD·🇺🇸 United States

Lanciato Dec 17, 2024 da Vandenberg Space Force Base

Loading…

Prossimi Passaggi (prossime 24 ore)

TLE

ObsoletoSource: Mike McCants

Epoca: Aug 7, 2026, 23:29 UTC

1 62342U 24243C   26219.97897947 0.00000000  00000-0  00000-0 0    05
2 62342  70.0207 166.7814 0002000 247.9280 112.0720 14.96713330    02

Traccia USA 443 in tempo reale con AllMySat

Download on the App Store